Location: Campbell_Patio
(29.7380°N, 95.6336°W)
Time: 01:18:57
(UTC-05:00)

Tiangong - Visible Passes

Search period start: 13 May 2025 00:00
Search period end: 23 May 2025 00:00
Orbit: 378 x 387 km, 41.5° (Epoch: 12 May)

Date Brightness Start Highest point End Pass type
(mag) Time Alt. Az. Time Alt. Az. Time Alt. Az.
13 May 1.0 03:58:47 15° ENE 03:58:47 15° ENE 03:59:23 10° ENE visible
13 May 0.1 05:30:56 10° WNW 05:33:15 19° NNW 05:35:37 10° NNE visible
14 May -0.3 04:33:12 27° N 04:33:12 27° N 04:35:31 10° NE visible
15 May 0.6 05:07:37 10° NW 05:09:22 14° NNW 05:11:08 10° NNE visible
16 May 0.7 04:09:38 17° N 04:09:38 17° N 04:10:59 10° NNE visible
16 May 1.0 05:46:05 10° N 05:46:14 10° N 05:46:22 10° N visible
17 May 0.8 04:44:16 10° NNW 04:45:19 11° N 04:46:21 10° N visible
18 May 1.3 03:45:48 11° NNE 03:45:48 11° NNE 03:46:09 10° NNE visible
18 May 1.1 05:21:45 10° N 05:22:05 10° N 05:22:25 10° N visible
19 May 0.8 05:56:51 10° NNW 05:58:43 15° NNE 06:00:37 10° NE visible
20 May 1.0 04:56:33 10° NNW 04:57:41 11° N 04:58:49 10° NNE visible
21 May 1.2 03:56:29 10° N 03:56:32 10° N 03:56:36 10° N visible
21 May 0.5 05:31:40 10° NNW 05:34:06 20° NNE 05:36:32 10° ENE visible
22 May 0.9 04:31:11 10° NNW 04:33:00 14° NNE 04:34:49 10° NE visible
